TimePST,TemperatureF,Dew PointF,Humidity,Sea Level PressureIn,VisibilityMPH,Wind Direction,Wind SpeedMPH,Gust SpeedMPH,PrecipitationIn,Events,Conditions,WindDirDegrees,DateUTC
12:51 AM,64.9,15.1,15,30.28,10.0,NW,6.9,-,N/A,,Clear,320,2013-03-01 08:51:00
1:51 AM,66.0,12.9,13,30.27,10.0,NNW,4.6,-,N/A,,Clear,340,2013-03-01 09:51:00
2:51 AM,66.0,12.0,12,30.25,10.0,NNW,4.6,-,N/A,,Clear,330,2013-03-01 10:51:00
3:51 AM,64.9,12.9,13,30.25,10.0,ENE,5.8,-,N/A,,Clear,60,2013-03-01 11:51:00
4:51 AM,64.0,12.9,14,30.25,10.0,East,8.1,-,N/A,,Clear,80,2013-03-01 12:51:00
5:51 AM,66.0,12.0,12,30.24,10.0,East,13.8,21.9,N/A,,Clear,80,2013-03-01 13:51:00
6:51 AM,64.0,14.0,14,30.24,10.0,East,13.8,-,N/A,,Clear,90,2013-03-01 14:51:00
7:51 AM,69.1,17.1,14,30.25,10.0,East,16.1,-,N/A,,Clear,100,2013-03-01 15:51:00
8:51 AM,71.1,17.1,13,30.25,10.0,East,8.1,-,N/A,,Clear,100,2013-03-01 16:51:00
9:51 AM,72.0,19.0,13,30.25,10.0,Variable,5.8,-,N/A,,Clear,0,2013-03-01 17:51:00
10:51 AM,73.9,19.9,13,30.24,10.0,East,9.2,-,N/A,,Clear,100,2013-03-01 18:51:00
11:51 AM,73.9,19.0,13,30.23,10.0,SE,9.2,-,N/A,,Clear,130,2013-03-01 19:51:00
12:51 PM,75.9,21.9,13,30.19,10.0,Variable,5.8,-,N/A,,Clear,0,2013-03-01 20:51:00
1:51 PM,75.9,19.9,12,30.17,10.0,Calm,Calm,-,N/A,,Clear,0,2013-03-01 21:51:00
2:51 PM,75.9,21.9,13,30.16,10.0,NNE,3.5,-,N/A,,Clear,30,2013-03-01 22:51:00
3:51 PM,73.9,21.9,14,30.15,10.0,WSW,5.8,-,N/A,,Clear,240,2013-03-01 23:51:00
4:51 PM,73.9,21.0,14,30.16,10.0,WSW,4.6,-,N/A,,Clear,250,2013-03-02 00:51:00
5:51 PM,71.1,19.9,14,30.16,10.0,SW,4.6,-,N/A,,Clear,230,2013-03-02 01:51:00
6:51 PM,69.1,18.0,14,30.18,10.0,West,5.8,-,N/A,,Clear,270,2013-03-02 02:51:00
7:51 PM,71.1,18.0,13,30.18,10.0,NW,4.6,-,N/A,,Clear,320,2013-03-02 03:51:00
8:51 PM,66.9,14.0,13,30.19,10.0,NW,9.2,-,N/A,,Clear,320,2013-03-02 04:51:00
9:51 PM,68.0,15.1,13,30.20,10.0,NW,9.2,-,N/A,,Clear,320,2013-03-02 05:51:00
10:51 PM,68.0,16.0,14,30.20,10.0,NW,9.2,-,N/A,,Clear,310,2013-03-02 06:51:00
11:51 PM,66.9,16.0,14,30.19,10.0,NW,5.8,-,N/A,,Clear,310,2013-03-02 07:51:00